This is the latest recevied weather packets stored in our database for station/object KB3UQE. If no packets are shown the sender has not sent any weather packets the latest 10 day(s).
| Time | Temp. | Humidity | Pressure | Rain* | Wind** | Luminosity | Snow |
|---|---|---|---|---|---|---|---|
| 1777417855 | 16.67° C | 50% | 1016.1 hPa | - | - | - | - |
| 1777417002 | 17.22° C | 50% | 1016.3 hPa | - | - | - | - |
| 1777416595 | 17.22° C | 50% | 1016.3 hPa | - | - | - | - |
| 1777415742 | 17.22° C | 50% | 1016.5 hPa | - | - | - | - |
| 1777415335 | 17.22° C | 50% | 1016.5 hPa | - | - | - | - |
| 1777414481 | 17.78° C | 49% | 1016.3 hPa | - | - | - | - |
| 1777414074 | 17.78° C | 49% | 1016.3 hPa | - | - | - | - |
| 1777413224 | 18.33° C | 49% | 1016.3 hPa | - | - | - | - |
| 1777412814 | 18.33° C | 49% | 1016.3 hPa | - | - | - | - |
| 1777411961 | 18.89° C | 48% | 1016.5 hPa | - | - | - | - |
| 1777411554 | 18.89° C | 48% | 1016.5 hPa | - | - | - | - |
| 1777410701 | 19.44° C | 47% | 1016.4 hPa | - | - | - | - |
| 1777410114 | 19.44° C | 47% | 1016.4 hPa | - | - | - | - |
| 1777409440 | 18.89° C | 48% | 1016.6 hPa | - | - | - | - |
| 1777408853 | 18.89° C | 48% | 1016.6 hPa | - | - | - | - |
| 1777408181 | 18.89° C | 48% | 1016.8 hPa | - | - | - | - |
| 1777407593 | 18.89° C | 48% | 1016.8 hPa | - | - | - | - |
| 1777406920 | 20° C | 47% | 1017.1 hPa | - | - | - | - |
| 1777406153 | 20° C | 47% | 1017.1 hPa | - | - | - | - |
| 1777405480 | 19.44° C | 47% | 1017.1 hPa | - | - | - | - |
| 1777404895 | 19.44° C | 47% | 1017.1 hPa | - | - | - | - |
| 1777404220 | 18.89° C | 48% | 1017.5 hPa | - | - | - | - |
| 1777403585 | 18.89° C | 48% | 1017.5 hPa | - | - | - | - |
| 1777402780 | 18.89° C | 48% | 1017.7 hPa | - | - | - | - |
| 1777402325 | 18.89° C | 48% | 1017.7 hPa | - | - | - | - |
* Rain since midnight (hover to see other rain measurements)
** Current wind speed in m/s (hover to see current wind gust speed)